Погода в Велиже

Погода в Велиже : погода сейчас, прогноз погоды и архив. Всё, что Вы хотите узнать о погоде в Велиже!

Поиск расширенной информации на нашем сайте:

Другие новости

Новости СМИ2

Главная страница сайта

Новости сайта

03.07.2017

Напоминаем, что на нашем специализированном сайте Метеоцентр.Азия вы можете получить высокодетализированные автоматические прогнозы погоды по пунктам России, СНГ и мира в авиационном формате (включающие направление и скорость ветра, видимость, явления погоды, количество и форму облачности, нижнюю и верхнюю границу облачности).


Погода в Велиже - сегодня

Время (UTC), дата Ветер
(°,м/с) 
Видим.   Явления Облачность Т
(°С)
Тd
(°С)
f(%) Тe
(°С)
Pmin
(гПа)
dP
(гПа)
Po
(мм)
O2
(г/м3)
Тmin Tmax R s Состояние
почвы
03 18.07.18 030 (СВ) 18000 м    ясно 
+18.7 +16.1 85 +31  1006  740  276  +18.2         
06 18.07.18 060 (СВ) 20000 м    3/0 верхняя 
[Ci fib]
+21.7 +17.8 79 +36  1006.1  0.4  740  272  +18.2        влажная 
09 18.07.18 050 (СВ) 23000 м    6/6 840 м 
[Cu med, cong]
+24.1 +18.9 73 +41  1005.1  -0.8  740  269           
21 18.07.18 360 (С) 17000 м    8/8 600 м кучево-дожд. 
[Cb cap]
+17.9 +17.1 95 +32  1005.1  -0.8  739  276           
03 19.07.18 020 (С) 12000 м  слаб. ливневой дождь  10/10 600 м кучево-дожд. 
[Cb cap]
+18.1 +17.8 98 +33  1003.6  -0.6  738  275  +17.4       
06 19.07.18 050 (СВ) 7000 м  слаб. ливневой дождь  10/10 400 м кучево-дожд. 
[Cb cap]
+19.1 +18.9 99 +37  1003.9  0.4  739  274  +17.4    10    влажная 
21 19.07.18 030 (СВ) 12000 м    10/10 480 м кучево-дожд. 
[Cb cap]
+18.6 +17.8 95 +33  1005.1  0.4  740  275           
03 20.07.18 030 (СВ) 12000 м    10/10 800 м 
[Sc diur, vesp]
+17.8 +17.2 96 +32  1004.4  -0.4  739  276  +16.9         
06 20.07.18 020 (С) 15000 м    10/10 450 м кучево-дожд. 
[Cb cap]
+19.9 +18.2 90 +36  1004.2  739  273  +16.9        влажная 
09 20.07.18 010 (С) 20000 м    10/10 480 м кучево-дожд. 
[Cb cap]
+22.3 +18.8 81 +39  1003.9  0.1  739  271           
15 20.07.18 290 (З) 20000 м    3/3 600 м кучево-дожд. 
[Cb calv]
+24.4 +19.3 73 +42  1003.2  -0.7  738  269      0.0     
21 20.07.18 тихо ()   9000 м  дымка  3/0 верхняя 
[Ci fib]
+16.1 +15.8 98 +27  1004.5  0.1  739  278           
00 21.07.18 тихо ()   2500 м  дымка  ясно 
+14.8 +14.6 99 +23  1005  0.3  739  279           
03 21.07.18 250 (З) 1200 м  дымка  8/0 верхняя 
[Ci fib]
+16.1 +15.9 99 +28  1005.5  0.6  740  278  +14.4         
06 21.07.18 тихо ()   0500 м  туман  ?/?  
+19.1 +18.9 99 +36  1005.8  0.5  740  274  +14.4        влажная 
18 21.07.18 060 (СВ) 18000 м  {ливн. осадки}  8/8 600 м кучево-дожд. 
[Cb cap]
+20.2 +19 93 +37  1006.9  0.5  741  273    +26.6     
21 21.07.18 350 (С) 12000 м    10/10 540 м кучево-дожд. 
[Cb cap]
+18.5 +18.2 98 +35  1007.6  0.6  741  275           
03 22.07.18 050 (СВ) 0900 м  туман  4/0 верхняя 
[Ci fib]
+19 +18.8 99 +36  1007.6  0.3  741  275  +18.3         
06 22.07.18 030 (СВ) 6000 м  в посл. час туман  10/10 480 м 
[St]
+19.9 +19.7 99 +39  1007.7  0.1  741  274  +18.3        влажная 
09 22.07.18 070 (В) 18000 м    8/8 630 м кучево-дожд. 
[Cb cap]
+21.8 +19.7 88 +40  1008  0.5  742  272           
18 22.07.18 040 (СВ) 12000 м  в посл. час ливневой дождь{гроза}  10/10 600 м кучево-дожд. 
[Cb cap]
+19.4 +18.7 96 +36  1008  0.8  742  275    +26.8  0.8     
21 22.07.18 050 (СВ) 12000 м    3/3 600 м кучево-дожд. 
[Cb cap]
+17.9 +17.7 99 +33  1008.5  0.4  742  276           
03 23.07.18 070 (В) 4800 м  дымка  10/10 600 м 
[St]
+18.4 +18.2 99 +34  1009.1  0.5  742  276  +16.5    0.8     
06 23.07.18 090 (В) 6000 м  дымка  10/10 600 м 
[St]
+19 +18.9 99 +38  1009.7  0.6  743  275  +16.5        влажная 
09 23.07.18 060 (СВ) 18000 м    6/6 600 м кучево-дожд. 
[Cb cap]
+22.8 +20 84 +42  1009.5  0.1  743  271           
Время (UTC), дата Ветер
(°,м/с) 
Видим.   Явления Облачность Т
(°С)
Тd
(°С)
f(%) Тe
(°С)
Pmin
(гПа)
dP
(гПа)
Po
(мм)
O2
(г/м3)
Тmin Tmax R s Состояние
почвы

Для получения пояснительной информации подведите курсор к названию столбца.

ПОГОДА в Велиже - архив

Всё, что Вы хотите узнать о погоде в Велиже - удобно и подробно!

Выберите нужную дату (начиная с 1 января 2015* года) и нажмите кнопку "Найти".
Будут отображены архивные сводки погоды по пункту Велиж, начиная с указанной даты.


Отображать данные в формате CSV (для использования в таблицах Excel)


Внимание! Наш архив погоды предназначен исключительно для личного некоммерческого использования в познавательных целях. Если Вам необходимы официальные справки о состоянии погоды (для производственных, юридических, коммерческих и т.п. целей), обращайтесь в органы Росгидромета.

*Примечание: данная дата относится к архиву по метеостанциям СССР (Россия, СНГ, Балтия).
Архив по метеостанциям Зарубежной Европы и Азии (кроме Китая) хранится 10 дней, по другим регионам земного шара (Китай, Африка, Америка, Австралия, Океания) - 1 день.

Велиж - район местоположения метеостанции


Название, широта, долгота, высота метеостанции:
Велиж 55.6°ш. 31.2°д. 183 м над ур. моря [Российская Федерация]

Дополнительная информация

В oтличие oт бoльшинства пoгoдных сайтoв мы публикуем пoдрoбную метеoинфoрмацию в детальнoм прoфессиoнальнoм фoрмате.

Характеристики температуры и влажнoсти вoздуха измеряются на высoте 2 м в тени вдали oт зданий и деревьев.
Скoрoсть ветра измеряется на высoте 10 м (на урoвне рoста челoвека скoрoсть ветра ниже в 1.5-2 раза). Если метеoстанция нахoдится в гoрoде или в лесу, тo скoрoсть ветра занижена на 2-4 м/с пo сравнению с oткрытым местoм. Скoрoсть ветра над акватoриями крупных рек и oзёр, а также на вершинах хoлмoв на 2-5 м/с выше, чем в oбычных услoвиях.
Атмoсфернoе давление в разных тoчках местнoсти мoжет значительнo oтличаться oт давления на метеoстанции, в зависимoсти oт услoвий рельефа (при пoдъёме на 10 м давление пoнижается примернo на 1 мм рт.ст.).